Change the Weather History Date:

Wednesday, July 31, 2013

  Actual Average Record
Temperature  
Mean Temperature 68 °F -  
Max Temperature 80 °F 83 °F 103 °F (1954)
Min Temperature 57 °F 61 °F 43 °F (1936)
Cooling Degree Days 4    
Growing Degree Days 18 (Base 50)    
Moisture  
Dew Point 59 °F    
Average Humidity 78    
Maximum Humidity 94    
Minimum Humidity 45    
Precipitation  
Precipitation 0.00 in - - ()
Sea Level Pressure  
Sea Level Pressure 30.13 in    
Wind  
Wind Speed 1 mph (WSW)    
Max Wind Speed 7 mph    
Max Gust Speed -    
Visibility 10 miles    
Events      
Averages and records for this station are not official NWS values.
T = Trace of Precipitation, MM = Missing Value Source: NWS Daily Summary

Daily Weather History Graph

Daily Weather History Graph

Search for Another Location

Airport or City:

Trip Planner

Search our weather history database for the weather conditions in past years. The results will help you decide how hot, cold, wet, or windy it might be!

Date:

Astronomy

Jul. 31, 2013 Rise Set
Actual Time 5:53 AM EDT 8:14 PM EDT
Civil Twilight 5:22 AM EDT 8:44 PM EDT
Nautical Twilight 4:44 AM EDT 9:22 PM EDT
Astronomical Twilight 4:02 AM EDT 10:04 PM EDT
Moon 12:47 AM EDT (7/31) 3:28 PM EDT (7/31)
Length of Visible Light 15h 22m
Length of Day
14h 20m
Waning Crescent, 32% of the Moon is Illuminated
Jul 31
Waning Crescent
Aug 6
New
Aug 14
First Quarter
Aug 20
Full
Aug 28
Last Quarter

Hourly Weather History & Observations

Time (EDT) Temp. Heat Index Dew Point Humidity Pressure Visibility Wind Dir Wind Speed Gust Speed Precip Events Conditions
12:15 AM 62.6 °F - 59.0 °F 88% 30.16 in 10.0 mi Calm Calm - N/A   Clear
12:35 AM 62.6 °F - 59.0 °F 88% 30.16 in 10.0 mi Calm Calm - N/A   Clear
12:55 AM 62.6 °F - 59.0 °F 88% 30.15 in 10.0 mi Calm Calm - N/A   Clear
1:15 AM 60.8 °F - 57.2 °F 88% 30.15 in 10.0 mi Calm Calm - N/A   Clear
1:35 AM 60.8 °F - 59.0 °F 94% 30.15 in 10.0 mi Calm Calm - N/A   Clear
1:55 AM 60.8 °F - 57.2 °F 88% 30.15 in 2.5 mi Calm Calm - N/A   Clear
2:15 AM 60.8 °F - 59.0 °F 94% 30.15 in 4.0 mi Calm Calm - N/A   Clear
2:35 AM 60.8 °F - 57.2 °F 88% 30.15 in 10.0 mi Calm Calm - N/A   Clear
2:55 AM 60.8 °F - 57.2 °F 88% 30.15 in 7.0 mi Calm Calm - N/A   Clear
3:15 AM 60.8 °F - 57.2 °F 88% 30.15 in 10.0 mi Calm Calm - N/A   Clear
3:35 AM 59.0 °F - 57.2 °F 94% 30.15 in 7.0 mi Calm Calm - N/A   Clear
3:55 AM 59.0 °F - 57.2 °F 94% 30.15 in 0.8 mi Calm Calm - N/A   Mist
4:15 AM 59.0 °F - 57.2 °F 94% 30.15 in 10.0 mi Calm Calm - N/A   Clear
4:35 AM 59.0 °F - 57.2 °F 94% 30.15 in 10.0 mi Calm Calm - N/A   Clear
4:55 AM 59.0 °F - 57.2 °F 94% 30.15 in 10.0 mi Calm Calm - N/A   Clear
5:15 AM 59.0 °F - 55.4 °F 88% 30.15 in 10.0 mi Calm Calm - N/A   Clear
5:35 AM 59.0 °F - 57.2 °F 94% 30.16 in 7.0 mi Calm Calm - N/A   Clear
5:55 AM 59.0 °F - 57.2 °F 94% 30.16 in 10.0 mi Calm Calm - N/A   Clear
6:15 AM 59.0 °F - 57.2 °F 94% 30.17 in 10.0 mi Calm Calm - N/A   Clear
6:35 AM 59.0 °F - 57.2 °F 94% 30.17 in 10.0 mi Calm Calm - N/A   Clear
6:45 AM 57.2 °F - 55.4 °F 94% 30.17 in 10.0 mi Calm Calm - N/A   Mostly Cloudy
7:45 AM 62.6 °F - 59.0 °F 88% 30.18 in 10.0 mi Calm Calm - N/A   Mostly Cloudy
8:45 AM 69.8 °F - 60.8 °F 73% 30.17 in 20.0 mi Calm Calm - N/A   Overcast
9:45 AM 73.4 °F - 60.8 °F 65% 30.16 in 20.0 mi Calm Calm - N/A   Mostly Cloudy
10:45 AM 75.2 °F - 60.8 °F 61% 30.16 in 20.0 mi Calm Calm - N/A   Mostly Cloudy
11:45 AM 78.8 °F - 59.0 °F 51% 30.14 in 20.0 mi SSW 5.8 mph - N/A   Mostly Cloudy
12:45 PM 78.8 °F - 59.0 °F 51% 30.13 in 20.0 mi SW 4.6 mph - N/A   Mostly Cloudy
1:45 PM 78.8 °F - 57.2 °F 47% 30.11 in 10.0 mi West 6.9 mph - N/A   Mostly Cloudy
2:45 PM 78.8 °F - 57.2 °F 47% 30.10 in 10.0 mi West 4.6 mph - N/A   Mostly Cloudy
3:45 PM 80.6 °F 80.8 °F 57.2 °F 45% 30.09 in 10.0 mi WSW 5.8 mph - N/A   Mostly Cloudy
4:45 PM 80.6 °F 80.8 °F 57.2 °F 45% 30.07 in 10.0 mi West 5.8 mph - N/A   Mostly Cloudy
5:45 PM 78.8 °F - 57.2 °F 47% 30.06 in 10.0 mi West 4.6 mph - N/A   Mostly Cloudy
6:45 PM 78.8 °F - 59.0 °F 51% 30.06 in 10.0 mi SW 6.9 mph - N/A   Partly Cloudy
7:45 PM 77.0 °F - 60.8 °F 57% 30.05 in 10.0 mi SW 5.8 mph - N/A   Partly Cloudy
8:45 PM 73.4 °F - 60.8 °F 65% 30.05 in 10.0 mi SW 3.5 mph - N/A   Partly Cloudy
9:45 PM 71.6 °F - 60.8 °F 69% 30.05 in 10.0 mi SSW 5.8 mph - N/A   Clear
10:55 PM 66.2 °F - 62.6 °F 88% 30.05 in 10.0 mi Calm Calm - N/A   Clear
11:15 PM 66.2 °F - 62.6 °F 88% 30.05 in 10.0 mi Calm Calm - N/A   Clear
11:35 PM 66.2 °F - 62.6 °F 88% 30.05 in 10.0 mi Calm Calm - N/A   Clear
11:55 PM 66.2 °F - 62.6 °F 88% 30.05 in 10.0 mi Calm Calm - N/A   Clear